Hourly Weather Adamivka

Today, 22 April, Thursday

Time Temperature Precipitation Wind Pressure Humidity
00:00 +5°C° 0 mm 3 mps 750 mmHg 85%
01:00 +5°C° 0 mm 3 mps 750 mmHg 87%
02:00 +5°C° 0 mm 3 mps 750 mmHg 88%
03:00 +5°C° 0 mm 3 mps 750 mmHg 88%
04:00 +4°C° 0 mm 3 mps 750 mmHg 89%
05:00 +4°C° 0 mm 3 mps 750 mmHg 89%
06:00 +7°C° 0 mm 3 mps 751 mmHg 83%
07:00 +8°C° 0 mm 4 mps 751 mmHg 77%
08:00 +11°C° 0 mm 4 mps 751 mmHg 70%
09:00 +12°C° 0 mm 5 mps 751 mmHg 65%
10:00 +13°C° 0 mm 6 mps 751 mmHg 60%
11:00 +15°C° 0 mm 6 mps 751 mmHg 55%
12:00 +15°C° 0.1 mm 6 mps 751 mmHg 54%
13:00 +15°C° 0.1 mm 6 mps 751 mmHg 53%
14:00 +16°C° 0.1 mm 6 mps 750 mmHg 52%
15:00 +15°C° 0.1 mm 6 mps 750 mmHg 54%
16:00 +15°C° 0.1 mm 6 mps 750 mmHg 57%
17:00 +14°C° 0.1 mm 6 mps 750 mmHg 59%
18:00 +13°C° 0.3 mm 5 mps 750 mmHg 64%
19:00 +12°C° 0.3 mm 4 mps 750 mmHg 70%
20:00 +11°C° 0.3 mm 3 mps 750 mmHg 75%
21:00 +11°C° 0.3 mm 4 mps 750 mmHg 78%
22:00 +10°C° 0.3 mm 4 mps 750 mmHg 80%
23:00 +10°C° 0.3 mm 4 mps 750 mmHg 82%

Tomorrow, 23 April, Friday

Time Temperature Precipitation Wind Pressure Humidity
00:00 +8°C° 0.1 mm 4 mps 750 mmHg 85%
01:00 +7°C° 0.1 mm 4 mps 750 mmHg 88%
02:00 +7°C° 0.1 mm 4 mps 750 mmHg 91%
03:00 +6°C° 0 mm 4 mps 750 mmHg 90%
04:00 +7°C° 0 mm 3 mps 750 mmHg 90%
05:00 +7°C° 0 mm 3 mps 750 mmHg 89%
06:00 +7°C° 0 mm 3 mps 751 mmHg 84%
07:00 +7°C° 0 mm 3 mps 751 mmHg 78%
08:00 +8°C° 0 mm 3 mps 751 mmHg 73%
09:00 +8°C° 0 mm 3 mps 751 mmHg 68%
10:00 +9°C° 0 mm 3 mps 751 mmHg 62%
11:00 +8°C° 0 mm 4 mps 751 mmHg 57%
12:00 +8°C° 0 mm 4 mps 751 mmHg 56%
13:00 +9°C° 0 mm 3 mps 751 mmHg 55%
14:00 +9°C° 0 mm 3 mps 751 mmHg 54%
15:00 +9°C° 0 mm 3 mps 751 mmHg 52%
16:00 +9°C° 0 mm 3 mps 751 mmHg 51%
17:00 +10°C° 0 mm 3 mps 751 mmHg 50%
18:00 +8°C° 0.1 mm 3 mps 751 mmHg 56%
19:00 +7°C° 0.1 mm 3 mps 751 mmHg 63%
20:00 +5°C° 0.1 mm 3 mps 751 mmHg 69%
21:00 +4°C° 0 mm 3 mps 751 mmHg 72%
22:00 +4°C° 0 mm 3 mps 751 mmHg 75%
23:00 +3°C° 0 mm 3 mps 751 mmHg 78%

Day after tomorrow, 24 April, Saturday

Time Temperature Precipitation Wind Pressure Humidity
00:00 +3°C° 0 mm 3 mps 751 mmHg 80%
01:00 +2°C° 0 mm 3 mps 751 mmHg 82%
02:00 +2°C° 0 mm 3 mps 751 mmHg 84%
03:00 +1°C° 0 mm 3 mps 751 mmHg 85%
04:00 +1°C° 0 mm 3 mps 750 mmHg 86%
05:00 0°C° 0 mm 3 mps 750 mmHg 87%
06:00 +1°C° 0.4 mm 3 mps 751 mmHg 85%
07:00 0°C° 0.4 mm 4 mps 751 mmHg 84%
08:00 0°C° 0.4 mm 5 mps 751 mmHg 83%
09:00 +1°C° 0.2 mm 5 mps 751 mmHg 73%
10:00 +3°C° 0.2 mm 6 mps 752 mmHg 62%
11:00 +4°C° 0.2 mm 7 mps 752 mmHg 52%
12:00 +4°C° 0.2 mm 7 mps 752 mmHg 50%
13:00 +5°C° 0.2 mm 8 mps 752 mmHg 48%
14:00 +5°C° 0.2 mm 8 mps 752 mmHg 47%
15:00 +5°C° 0 mm 7 mps 752 mmHg 48%
16:00 +5°C° 0 mm 6 mps 753 mmHg 49%
17:00 +6°C° 0 mm 5 mps 753 mmHg 50%
18:00 +5°C° 0 mm 5 mps 753 mmHg 55%
19:00 +3°C° 0 mm 4 mps 753 mmHg 61%
20:00 +2°C° 0 mm 3 mps 753 mmHg 67%
21:00 +2°C° 0 mm 3 mps 753 mmHg 69%
22:00 +1°C° 0 mm 3 mps 753 mmHg 71%
23:00 +1°C° 0 mm 3 mps 753 mmHg 73%

25 April, Sunday

Time Temperature Precipitation Wind Pressure Humidity
00:00 +1°C° 0 mm 3 mps 753 mmHg 75%
01:00 0°C° 0 mm 3 mps 753 mmHg 76%
02:00 0°C° 0 mm 3 mps 753 mmHg 78%
03:00 0°C° 0 mm 3 mps 753 mmHg 79%
04:00 -1°C° 0 mm 3 mps 753 mmHg 80%
05:00 -1°C° 0 mm 3 mps 753 mmHg 81%
06:00 0°C° 0 mm 4 mps 753 mmHg 77%
07:00 +1°C° 0 mm 4 mps 753 mmHg 73%
08:00 +3°C° 0 mm 5 mps 753 mmHg 69%
09:00 +3°C° 0.2 mm 5 mps 753 mmHg 75%
10:00 +4°C° 0.2 mm 4 mps 753 mmHg 81%
11:00 +4°C° 0.2 mm 4 mps 753 mmHg 87%
12:00 +5°C° 0.2 mm 4 mps 752 mmHg 79%
13:00 +5°C° 0.2 mm 5 mps 752 mmHg 72%
14:00 +6°C° 0.2 mm 5 mps 752 mmHg 64%
15:00 +6°C° 0.1 mm 4 mps 752 mmHg 63%
16:00 +6°C° 0.1 mm 4 mps 752 mmHg 63%
17:00 +6°C° 0.1 mm 4 mps 751 mmHg 62%
18:00 +5°C° 0.1 mm 3 mps 752 mmHg 66%
19:00 +4°C° 0.1 mm 3 mps 752 mmHg 70%
20:00 +3°C° 0.1 mm 2 mps 752 mmHg 74%
21:00 +3°C° 0 mm 2 mps 752 mmHg 74%
22:00 +2°C° 0 mm 2 mps 752 mmHg 74%
23:00 +2°C° 0 mm 2 mps 752 mmHg 74%

26 April, Monday

Time Temperature Precipitation Wind Pressure Humidity
00:00 +1°C° 0 mm 2 mps 752 mmHg 76%
01:00 +1°C° 0 mm 2 mps 752 mmHg 77%
02:00 +1°C° 0 mm 2 mps 752 mmHg 79%
03:00 -1°C° 0 mm 2 mps 751 mmHg 80%
04:00 -1°C° 0 mm 2 mps 751 mmHg 81%
05:00 -1°C° 0 mm 2 mps 751 mmHg 82%
06:00 +1°C° 0 mm 3 mps 751 mmHg 76%
07:00 +2°C° 0 mm 3 mps 751 mmHg 69%
08:00 +4°C° 0 mm 4 mps 751 mmHg 62%
09:00 +5°C° 0.4 mm 4 mps 751 mmHg 61%
10:00 +5°C° 0.4 mm 4 mps 750 mmHg 59%
11:00 +6°C° 0.4 mm 5 mps 750 mmHg 58%
12:00 +6°C° 0.3 mm 5 mps 750 mmHg 56%
13:00 +5°C° 0.3 mm 6 mps 750 mmHg 54%
14:00 +5°C° 0.3 mm 6 mps 750 mmHg 52%
15:00 +5°C° 0.1 mm 6 mps 750 mmHg 52%
16:00 +6°C° 0.1 mm 5 mps 750 mmHg 51%
17:00 +6°C° 0.1 mm 5 mps 749 mmHg 51%
18:00 +5°C° 0 mm 4 mps 750 mmHg 58%
19:00 +3°C° 0 mm 4 mps 750 mmHg 64%
20:00 +2°C° 0 mm 3 mps 750 mmHg 70%
21:00 +1°C° 0 mm 3 mps 750 mmHg 71%
22:00 +1°C° 0 mm 3 mps 750 mmHg 73%
23:00 +1°C° 0 mm 3 mps 750 mmHg 74%

27 April, Tuesday

Time Temperature Precipitation Wind Pressure Humidity
00:00 +1°C° 0 mm 3 mps 750 mmHg 75%
01:00 0°C° 0 mm 3 mps 750 mmHg 77%
02:00 0°C° 0 mm 3 mps 750 mmHg 79%
03:00 0°C° 0 mm 3 mps 750 mmHg 80%
04:00 -1°C° 0 mm 3 mps 750 mmHg 81%
05:00 -1°C° 0 mm 3 mps 750 mmHg 82%
06:00 +1°C° 0 mm 3 mps 750 mmHg 75%
07:00 +3°C° 0 mm 4 mps 751 mmHg 69%
08:00 +5°C° 0 mm 4 mps 751 mmHg 62%
09:00 +6°C° 0 mm 4 mps 751 mmHg 59%
10:00 +7°C° 0 mm 5 mps 751 mmHg 55%
11:00 +8°C° 0 mm 5 mps 751 mmHg 51%
12:00 +9°C° 0 mm 5 mps 750 mmHg 50%
13:00 +9°C° 0 mm 5 mps 750 mmHg 49%
14:00 +10°C° 0 mm 5 mps 750 mmHg 47%
15:00 +11°C° 0 mm 4 mps 750 mmHg 49%
16:00 +11°C° 0 mm 3 mps 750 mmHg 50%
17:00 +12°C° 0 mm 2 mps 750 mmHg 51%
18:00 +10°C° 0 mm 2 mps 750 mmHg 55%
19:00 +9°C° 0 mm 1 mps 750 mmHg 59%
20:00 +8°C° 0 mm 1 mps 750 mmHg 63%
21:00 +6°C° 0 mm 2 mps 750 mmHg 66%
22:00 +6°C° 0 mm 2 mps 750 mmHg 69%
23:00 +4°C° 0 mm 3 mps 750 mmHg 72%
Show more